Terminal Aerodrome Forecast
Issued by NWS Honolulu, HI

Home | Current Version | Previous Version | Text Only | Print | Product List | Glossary On
Versions: 1 2 3 4 5 6 7 8 9 10 11 12 13 14 15 16 17 18 19 20 21 22 23 24 25 26 27
000
FTPA31 PHFO 212108 AAB
TAFHNL
TAF AMD
PHNL 212108Z 2121/2224 04012G18KT P6SM VCSH FEW025 SCT035 BKN050
     FM220500 06008KT P6SM VCSH FEW025 SCT045=

USA.gov is the U.S. government's official web portal to all federal, state and local government web resources and services.